segment_id,date_local,uptime,ped_lft,ped_rgt,ped_total,bike_lft,bike_rgt,bike_total,car_lft,car_rgt,car_total,heavy_lft,heavy_rgt,heavy_total,v85,car_speed0,car_speed10,car_speed20,car_speed30,car_speed40,car_speed50,car_speed60,car_speed70
100024661,2020-07-01 00:00,1.0,,,,89,104,193,,,,,,,
100024661,2020-07-01 01:00,1.0,,,,37,37,74,,,,,,,
100024661,2020-07-01 02:00,1.0,,,,22,20,42,,,,,,,
100024661,2020-07-01 03:00,1.0,,,,7,8,15,,,,,,,
100024661,2020-07-01 04:00,1.0,,,,7,11,18,,,,,,,
100024661,2020-07-01 05:00,1.0,,,,20,52,72,,,,,,,
100024661,2020-07-01 06:00,1.0,,,,77,121,198,,,,,,,
100024661,2020-07-01 07:00,1.0,,,,154,297,451,,,,,,,
100024661,2020-07-01 08:00,1.0,,,,419,661,1080,,,,,,,
100024661,2020-07-01 09:00,1.0,,,,494,581,1075,,,,,,,
100024661,2020-07-01 10:00,1.0,,,,247,302,549,,,,,,,
100024661,2020-07-01 11:00,1.0,,,,125,186,311,,,,,,,
100024661,2020-07-01 12:00,1.0,,,,186,193,379,,,,,,,
100024661,2020-07-01 13:00,1.0,,,,217,198,415,,,,,,,
100024661,2020-07-01 14:00,1.0,,,,299,234,533,,,,,,,
100024661,2020-07-01 15:00,1.0,,,,332,282,614,,,,,,,
100024661,2020-07-01 16:00,1.0,,,,416,359,775,,,,,,,
100024661,2020-07-01 17:00,1.0,,,,580,465,1045,,,,,,,
100024661,2020-07-01 18:00,1.0,,,,641,635,1276,,,,,,,
100024661,2020-07-01 19:00,1.0,,,,446,499,945,,,,,,,
100024661,2020-07-01 20:00,1.0,,,,236,339,575,,,,,,,
100024661,2020-07-01 21:00,1.0,,,,203,170,373,,,,,,,
100024661,2020-07-01 22:00,1.0,,,,149,172,321,,,,,,,
100024661,2020-07-01 23:00,1.0,,,,149,130,279,,,,,,,
100024661,2020-07-02 00:00,1.0,,,,89,76,165,,,,,,,
100024661,2020-07-02 01:00,1.0,,,,36,40,76,,,,,,,
100024661,2020-07-02 02:00,1.0,,,,16,13,29,,,,,,,
100024661,2020-07-02 03:00,1.0,,,,4,9,13,,,,,,,
100024661,2020-07-02 04:00,1.0,,,,8,11,19,,,,,,,
100024661,2020-07-02 05:00,1.0,,,,19,55,74,,,,,,,
100024661,2020-07-02 06:00,1.0,,,,70,160,230,,,,,,,
100024661,2020-07-02 07:00,1.0,,,,201,334,535,,,,,,,
100024661,2020-07-02 08:00,1.0,,,,467,748,1215,,,,,,,
100024661,2020-07-02 09:00,1.0,,,,500,650,1150,,,,,,,
100024661,2020-07-02 10:00,1.0,,,,331,348,679,,,,,,,
100024661,2020-07-02 11:00,1.0,,,,303,287,590,,,,,,,
100024661,2020-07-02 12:00,1.0,,,,331,360,691,,,,,,,
100024661,2020-07-02 13:00,1.0,,,,296,371,667,,,,,,,
100024661,2020-07-02 14:00,1.0,,,,406,370,776,,,,,,,
100024661,2020-07-02 15:00,1.0,,,,443,388,831,,,,,,,
100024661,2020-07-02 16:00,1.0,,,,540,519,1059,,,,,,,
100024661,2020-07-02 17:00,1.0,,,,705,600,1305,,,,,,,
100024661,2020-07-02 18:00,1.0,,,,803,786,1589,,,,,,,
100024661,2020-07-02 19:00,1.0,,,,585,691,1276,,,,,,,
100024661,2020-07-02 20:00,1.0,,,,304,408,712,,,,,,,
100024661,2020-07-02 21:00,1.0,,,,298,278,576,,,,,,,
100024661,2020-07-02 22:00,1.0,,,,284,244,528,,,,,,,
100024661,2020-07-02 23:00,1.0,,,,201,221,422,,,,,,,
100024661,2020-07-03 00:00,1.0,,,,141,83,224,,,,,,,
100024661,2020-07-03 01:00,1.0,,,,56,74,130,,,,,,,
100024661,2020-07-03 02:00,1.0,,,,30,37,67,,,,,,,
100024661,2020-07-03 03:00,1.0,,,,17,18,35,,,,,,,
100024661,2020-07-03 04:00,1.0,,,,13,14,27,,,,,,,
100024661,2020-07-03 05:00,1.0,,,,14,58,72,,,,,,,
100024661,2020-07-03 06:00,1.0,,,,54,120,174,,,,,,,
100024661,2020-07-03 07:00,1.0,,,,148,284,432,,,,,,,
100024661,2020-07-03 08:00,1.0,,,,368,553,921,,,,,,,
100024661,2020-07-03 09:00,1.0,,,,414,534,948,,,,,,,
100024661,2020-07-03 10:00,1.0,,,,310,329,639,,,,,,,
100024661,2020-07-03 11:00,1.0,,,,279,291,570,,,,,,,
100024661,2020-07-03 12:00,1.0,,,,339,363,702,,,,,,,
100024661,2020-07-03 13:00,1.0,,,,376,349,725,,,,,,,
100024661,2020-07-03 14:00,1.0,,,,429,382,811,,,,,,,
100024661,2020-07-03 15:00,1.0,,,,469,397,866,,,,,,,
100024661,2020-07-03 16:00,1.0,,,,520,486,1006,,,,,,,
100024661,2020-07-03 17:00,1.0,,,,564,563,1127,,,,,,,
100024661,2020-07-03 18:00,1.0,,,,568,708,1276,,,,,,,
100024661,2020-07-03 19:00,1.0,,,,441,585,1026,,,,,,,
100024661,2020-07-03 20:00,1.0,,,,313,461,774,,,,,,,
100024661,2020-07-03 21:00,1.0,,,,238,268,506,,,,,,,
100024661,2020-07-03 22:00,1.0,,,,211,176,387,,,,,,,
100024661,2020-07-03 23:00,1.0,,,,202,231,433,,,,,,,
100024661,2020-07-04 00:00,1.0,,,,190,177,367,,,,,,,
100024661,2020-07-04 01:00,1.0,,,,149,98,247,,,,,,,
100024661,2020-07-04 02:00,1.0,,,,86,65,151,,,,,,,
100024661,2020-07-04 03:00,1.0,,,,58,35,93,,,,,,,
100024661,2020-07-04 04:00,1.0,,,,40,26,66,,,,,,,
100024661,2020-07-04 05:00,1.0,,,,27,13,40,,,,,,,
100024661,2020-07-04 06:00,1.0,,,,21,28,49,,,,,,,
100024661,2020-07-04 07:00,1.0,,,,31,36,67,,,,,,,
100024661,2020-07-04 08:00,1.0,,,,62,58,120,,,,,,,
100024661,2020-07-04 09:00,1.0,,,,131,107,238,,,,,,,
100024661,2020-07-04 10:00,1.0,,,,203,200,403,,,,,,,
100024661,2020-07-04 11:00,1.0,,,,244,252,496,,,,,,,
100024661,2020-07-04 12:00,1.0,,,,274,258,532,,,,,,,
100024661,2020-07-04 13:00,1.0,,,,297,328,625,,,,,,,
100024661,2020-07-04 14:00,1.0,,,,366,403,769,,,,,,,
100024661,2020-07-04 15:00,1.0,,,,330,445,775,,,,,,,
100024661,2020-07-04 16:00,1.0,,,,354,455,809,,,,,,,
100024661,2020-07-04 17:00,1.0,,,,399,492,891,,,,,,,
100024661,2020-07-04 18:00,1.0,,,,334,497,831,,,,,,,
100024661,2020-07-04 19:00,1.0,,,,293,364,657,,,,,,,
100024661,2020-07-04 20:00,1.0,,,,239,283,522,,,,,,,
100024661,2020-07-04 21:00,1.0,,,,142,242,384,,,,,,,
100024661,2020-07-04 22:00,1.0,,,,172,195,367,,,,,,,
100024661,2020-07-04 23:00,1.0,,,,151,152,303,,,,,,,
100024661,2020-07-05 00:00,1.0,,,,139,143,282,,,,,,,
100024661,2020-07-05 01:00,1.0,,,,108,87,195,,,,,,,
100024661,2020-07-05 02:00,1.0,,,,74,63,137,,,,,,,
100024661,2020-07-05 03:00,1.0,,,,50,25,75,,,,,,,
100024661,2020-07-05 04:00,1.0,,,,18,25,43,,,,,,,
100024661,2020-07-05 05:00,1.0,,,,25,14,39,,,,,,,
100024661,2020-07-05 06:00,1.0,,,,14,24,38,,,,,,,
100024661,2020-07-05 07:00,1.0,,,,28,22,50,,,,,,,
100024661,2020-07-05 08:00,1.0,,,,39,40,79,,,,,,,
100024661,2020-07-05 09:00,1.0,,,,80,79,159,,,,,,,
100024661,2020-07-05 10:00,1.0,,,,128,132,260,,,,,,,
100024661,2020-07-05 11:00,1.0,,,,135,173,308,,,,,,,
100024661,2020-07-05 12:00,1.0,,,,156,205,361,,,,,,,
100024661,2020-07-05 13:00,1.0,,,,198,265,463,,,,,,,
100024661,2020-07-05 14:00,1.0,,,,216,320,536,,,,,,,
100024661,2020-07-05 15:00,1.0,,,,232,328,560,,,,,,,
100024661,2020-07-05 16:00,1.0,,,,233,341,574,,,,,,,
100024661,2020-07-05 17:00,1.0,,,,270,318,588,,,,,,,
100024661,2020-07-05 18:00,1.0,,,,267,270,537,,,,,,,
100024661,2020-07-05 19:00,1.0,,,,208,176,384,,,,,,,
100024661,2020-07-05 20:00,1.0,,,,153,111,264,,,,,,,
100024661,2020-07-05 21:00,1.0,,,,128,115,243,,,,,,,
100024661,2020-07-05 22:00,1.0,,,,94,88,182,,,,,,,
100024661,2020-07-05 23:00,1.0,,,,52,52,104,,,,,,,
100024661,2020-07-06 00:00,1.0,,,,34,34,68,,,,,,,
100024661,2020-07-06 01:00,1.0,,,,27,26,53,,,,,,,
100024661,2020-07-06 02:00,1.0,,,,9,13,22,,,,,,,
100024661,2020-07-06 03:00,1.0,,,,8,10,18,,,,,,,
100024661,2020-07-06 04:00,1.0,,,,6,6,12,,,,,,,
100024661,2020-07-06 05:00,1.0,,,,16,44,60,,,,,,,
100024661,2020-07-06 06:00,1.0,,,,64,121,185,,,,,,,
100024661,2020-07-06 07:00,1.0,,,,157,342,499,,,,,,,
100024661,2020-07-06 08:00,1.0,,,,433,754,1187,,,,,,,
100024661,2020-07-06 09:00,1.0,,,,464,603,1067,,,,,,,
100024661,2020-07-06 10:00,1.0,,,,270,295,565,,,,,,,
100024661,2020-07-06 11:00,1.0,,,,233,252,485,,,,,,,
100024661,2020-07-06 12:00,1.0,,,,262,296,558,,,,,,,
100024661,2020-07-06 13:00,1.0,,,,287,290,577,,,,,,,
100024661,2020-07-06 14:00,1.0,,,,320,307,627,,,,,,,
100024661,2020-07-06 15:00,1.0,,,,386,354,740,,,,,,,
100024661,2020-07-06 16:00,1.0,,,,456,397,853,,,,,,,
100024661,2020-07-06 17:00,1.0,,,,618,527,1145,,,,,,,
100024661,2020-07-06 18:00,1.0,,,,736,647,1383,,,,,,,
100024661,2020-07-06 19:00,1.0,,,,421,491,912,,,,,,,
100024661,2020-07-06 20:00,1.0,,,,247,322,569,,,,,,,
100024661,2020-07-06 21:00,1.0,,,,177,215,392,,,,,,,
100024661,2020-07-06 22:00,1.0,,,,150,147,297,,,,,,,
100024661,2020-07-06 23:00,1.0,,,,102,97,199,,,,,,,
100024661,2020-07-07 00:00,1.0,,,,50,49,99,,,,,,,
100024661,2020-07-07 01:00,1.0,,,,11,19,30,,,,,,,
100024661,2020-07-07 02:00,1.0,,,,14,14,28,,,,,,,
100024661,2020-07-07 03:00,1.0,,,,7,6,13,,,,,,,
100024661,2020-07-07 04:00,1.0,,,,7,6,13,,,,,,,
100024661,2020-07-07 05:00,1.0,,,,27,48,75,,,,,,,
100024661,2020-07-07 06:00,1.0,,,,74,149,223,,,,,,,
100024661,2020-07-07 07:00,1.0,,,,186,333,519,,,,,,,
100024661,2020-07-07 08:00,1.0,,,,472,763,1235,,,,,,,
100024661,2020-07-07 09:00,1.0,,,,515,663,1178,,,,,,,
100024661,2020-07-07 10:00,1.0,,,,272,323,595,,,,,,,
100024661,2020-07-07 11:00,1.0,,,,249,256,505,,,,,,,
100024661,2020-07-07 12:00,1.0,,,,295,305,600,,,,,,,
100024661,2020-07-07 13:00,1.0,,,,279,323,602,,,,,,,
100024661,2020-07-07 14:00,1.0,,,,393,364,757,,,,,,,
100024661,2020-07-07 15:00,1.0,,,,433,397,830,,,,,,,
100024661,2020-07-07 16:00,1.0,,,,526,431,957,,,,,,,
100024661,2020-07-07 17:00,1.0,,,,618,611,1229,,,,,,,
100024661,2020-07-07 18:00,1.0,,,,763,728,1491,,,,,,,
100024661,2020-07-07 19:00,1.0,,,,592,587,1179,,,,,,,
100024661,2020-07-07 20:00,1.0,,,,324,374,698,,,,,,,
100024661,2020-07-07 21:00,1.0,,,,270,256,526,,,,,,,
100024661,2020-07-07 22:00,1.0,,,,165,135,300,,,,,,,
100024661,2020-07-07 23:00,1.0,,,,121,129,250,,,,,,,
100024661,2020-07-08 00:00,1.0,,,,53,60,113,,,,,,,
100024661,2020-07-08 01:00,1.0,,,,39,26,65,,,,,,,
100024661,2020-07-08 02:00,1.0,,,,21,13,34,,,,,,,
100024661,2020-07-08 03:00,1.0,,,,5,5,10,,,,,,,
100024661,2020-07-08 04:00,1.0,,,,6,14,20,,,,,,,
100024661,2020-07-08 05:00,1.0,,,,20,44,64,,,,,,,
100024661,2020-07-08 06:00,1.0,,,,60,127,187,,,,,,,
100024661,2020-07-08 07:00,1.0,,,,144,286,430,,,,,,,
100024661,2020-07-08 08:00,1.0,,,,438,681,1119,,,,,,,
100024661,2020-07-08 09:00,1.0,,,,517,562,1079,,,,,,,
100024661,2020-07-08 10:00,1.0,,,,252,301,553,,,,,,,
100024661,2020-07-08 11:00,1.0,,,,249,276,525,,,,,,,
100024661,2020-07-08 12:00,1.0,,,,272,275,547,,,,,,,
100024661,2020-07-08 13:00,1.0,,,,313,295,608,,,,,,,
100024661,2020-07-08 14:00,1.0,,,,301,310,611,,,,,,,
100024661,2020-07-08 15:00,1.0,,,,374,354,728,,,,,,,
100024661,2020-07-08 16:00,1.0,,,,433,420,853,,,,,,,
100024661,2020-07-08 17:00,1.0,,,,602,569,1171,,,,,,,
100024661,2020-07-08 18:00,1.0,,,,734,694,1428,,,,,,,
100024661,2020-07-08 19:00,1.0,,,,506,528,1034,,,,,,,
100024661,2020-07-08 20:00,1.0,,,,290,332,622,,,,,,,
100024661,2020-07-08 21:00,1.0,,,,212,228,440,,,,,,,
100024661,2020-07-08 22:00,1.0,,,,207,203,410,,,,,,,
100024661,2020-07-08 23:00,1.0,,,,150,143,293,,,,,,,
100024661,2020-07-09 00:00,1.0,,,,83,71,154,,,,,,,
100024661,2020-07-09 01:00,1.0,,,,32,37,69,,,,,,,
100024661,2020-07-09 02:00,1.0,,,,21,11,32,,,,,,,
100024661,2020-07-09 03:00,1.0,,,,11,10,21,,,,,,,
100024661,2020-07-09 04:00,1.0,,,,5,6,11,,,,,,,
100024661,2020-07-09 05:00,1.0,,,,19,45,64,,,,,,,
100024661,2020-07-09 06:00,1.0,,,,61,112,173,,,,,,,
100024661,2020-07-09 07:00,1.0,,,,134,222,356,,,,,,,
100024661,2020-07-09 08:00,1.0,,,,376,633,1009,,,,,,,
100024661,2020-07-09 09:00,1.0,,,,446,545,991,,,,,,,
100024661,2020-07-09 10:00,1.0,,,,252,276,528,,,,,,,
100024661,2020-07-09 11:00,1.0,,,,246,225,471,,,,,,,
100024661,2020-07-09 12:00,1.0,,,,212,204,416,,,,,,,
100024661,2020-07-09 13:00,1.0,,,,132,126,258,,,,,,,
100024661,2020-07-09 14:00,1.0,,,,137,117,254,,,,,,,
100024661,2020-07-09 15:00,1.0,,,,264,207,471,,,,,,,
100024661,2020-07-09 16:00,1.0,,,,314,228,542,,,,,,,
100024661,2020-07-09 17:00,1.0,,,,434,337,771,,,,,,,
100024661,2020-07-09 18:00,1.0,,,,528,498,1026,,,,,,,
100024661,2020-07-09 19:00,1.0,,,,359,398,757,,,,,,,
100024661,2020-07-09 20:00,1.0,,,,218,268,486,,,,,,,
100024661,2020-07-09 21:00,1.0,,,,149,168,317,,,,,,,
100024661,2020-07-09 22:00,1.0,,,,136,102,238,,,,,,,
100024661,2020-07-09 23:00,1.0,,,,96,109,205,,,,,,,
100024661,2020-07-10 00:00,1.0,,,,75,80,155,,,,,,,
100024661,2020-07-10 01:00,1.0,,,,36,40,76,,,,,,,
100024661,2020-07-10 02:00,1.0,,,,19,21,40,,,,,,,
100024661,2020-07-10 03:00,1.0,,,,13,10,23,,,,,,,
100024661,2020-07-10 04:00,1.0,,,,7,6,13,,,,,,,
100024661,2020-07-10 05:00,1.0,,,,11,42,53,,,,,,,
100024661,2020-07-10 06:00,1.0,,,,53,95,148,,,,,,,
100024661,2020-07-10 07:00,1.0,,,,92,188,280,,,,,,,
100024661,2020-07-10 08:00,1.0,,,,164,255,419,,,,,,,
100024661,2020-07-10 09:00,1.0,,,,198,253,451,,,,,,,
100024661,2020-07-10 10:00,1.0,,,,190,205,395,,,,,,,
100024661,2020-07-10 11:00,1.0,,,,206,184,390,,,,,,,
100024661,2020-07-10 12:00,1.0,,,,262,226,488,,,,,,,
100024661,2020-07-10 13:00,1.0,,,,271,269,540,,,,,,,
100024661,2020-07-10 14:00,1.0,,,,295,235,530,,,,,,,
100024661,2020-07-10 15:00,1.0,,,,305,264,569,,,,,,,
100024661,2020-07-10 16:00,1.0,,,,330,331,661,,,,,,,
100024661,2020-07-10 17:00,1.0,,,,381,400,781,,,,,,,
100024661,2020-07-10 18:00,1.0,,,,369,444,813,,,,,,,
100024661,2020-07-10 19:00,1.0,,,,335,348,683,,,,,,,
100024661,2020-07-10 20:00,1.0,,,,181,283,464,,,,,,,
100024661,2020-07-10 21:00,1.0,,,,127,168,295,,,,,,,
100024661,2020-07-10 22:00,1.0,,,,121,119,240,,,,,,,
100024661,2020-07-10 23:00,1.0,,,,117,91,208,,,,,,,
100024661,2020-07-11 00:00,1.0,,,,98,124,222,,,,,,,
100024661,2020-07-11 01:00,1.0,,,,50,65,115,,,,,,,
100024661,2020-07-11 02:00,1.0,,,,44,41,85,,,,,,,
100024661,2020-07-11 03:00,1.0,,,,31,32,63,,,,,,,
100024661,2020-07-11 04:00,1.0,,,,27,19,46,,,,,,,
100024661,2020-07-11 05:00,1.0,,,,20,13,33,,,,,,,
100024661,2020-07-11 06:00,1.0,,,,28,23,51,,,,,,,
100024661,2020-07-11 07:00,1.0,,,,19,25,44,,,,,,,
100024661,2020-07-11 08:00,1.0,,,,54,59,113,,,,,,,
100024661,2020-07-11 09:00,1.0,,,,137,106,243,,,,,,,
100024661,2020-07-11 10:00,1.0,,,,170,204,374,,,,,,,
100024661,2020-07-11 11:00,1.0,,,,217,235,452,,,,,,,
100024661,2020-07-11 12:00,1.0,,,,303,273,576,,,,,,,
100024661,2020-07-11 13:00,1.0,,,,311,353,664,,,,,,,
100024661,2020-07-11 14:00,1.0,,,,340,441,781,,,,,,,
100024661,2020-07-11 15:00,1.0,,,,351,444,795,,,,,,,
100024661,2020-07-11 16:00,1.0,,,,298,542,840,,,,,,,
100024661,2020-07-11 17:00,1.0,,,,324,483,807,,,,,,,
100024661,2020-07-11 18:00,1.0,,,,313,435,748,,,,,,,
100024661,2020-07-11 19:00,1.0,,,,288,418,706,,,,,,,
100024661,2020-07-11 20:00,1.0,,,,229,271,500,,,,,,,
100024661,2020-07-11 21:00,1.0,,,,143,212,355,,,,,,,
100024661,2020-07-11 22:00,1.0,,,,155,136,291,,,,,,,
100024661,2020-07-11 23:00,1.0,,,,165,144,309,,,,,,,
100024661,2020-07-12 00:00,1.0,,,,168,103,271,,,,,,,
100024661,2020-07-12 01:00,1.0,,,,132,75,207,,,,,,,
100024661,2020-07-12 02:00,1.0,,,,80,56,136,,,,,,,
100024661,2020-07-12 03:00,1.0,,,,32,33,65,,,,,,,
100024661,2020-07-12 04:00,1.0,,,,24,26,50,,,,,,,
100024661,2020-07-12 05:00,1.0,,,,28,13,41,,,,,,,
100024661,2020-07-12 06:00,1.0,,,,19,20,39,,,,,,,
100024661,2020-07-12 07:00,1.0,,,,15,19,34,,,,,,,
100024661,2020-07-12 08:00,1.0,,,,41,37,78,,,,,,,
100024661,2020-07-12 09:00,1.0,,,,87,69,156,,,,,,,
100024661,2020-07-12 10:00,1.0,,,,128,159,287,,,,,,,
100024661,2020-07-12 11:00,1.0,,,,138,187,325,,,,,,,
100024661,2020-07-12 12:00,1.0,,,,228,227,455,,,,,,,
100024661,2020-07-12 13:00,1.0,,,,236,282,518,,,,,,,
100024661,2020-07-12 14:00,1.0,,,,223,325,548,,,,,,,
100024661,2020-07-12 15:00,1.0,,,,280,362,642,,,,,,,
100024661,2020-07-12 16:00,1.0,,,,246,317,563,,,,,,,
100024661,2020-07-12 17:00,1.0,,,,267,336,603,,,,,,,
100024661,2020-07-12 18:00,1.0,,,,258,319,577,,,,,,,
100024661,2020-07-12 19:00,1.0,,,,222,265,487,,,,,,,
100024661,2020-07-12 20:00,1.0,,,,192,181,373,,,,,,,
100024661,2020-07-12 21:00,1.0,,,,171,174,345,,,,,,,
100024661,2020-07-12 22:00,1.0,,,,137,113,250,,,,,,,
100024661,2020-07-12 23:00,1.0,,,,78,84,162,,,,,,,
100024661,2020-07-13 00:00,1.0,,,,51,48,99,,,,,,,
100024661,2020-07-13 01:00,1.0,,,,26,25,51,,,,,,,
100024661,2020-07-13 02:00,1.0,,,,6,6,12,,,,,,,
100024661,2020-07-13 03:00,1.0,,,,10,7,17,,,,,,,
100024661,2020-07-13 04:00,1.0,,,,7,7,14,,,,,,,
100024661,2020-07-13 05:00,1.0,,,,28,43,71,,,,,,,
100024661,2020-07-13 06:00,1.0,,,,77,136,213,,,,,,,
100024661,2020-07-13 07:00,1.0,,,,165,285,450,,,,,,,
100024661,2020-07-13 08:00,1.0,,,,409,670,1079,,,,,,,
100024661,2020-07-13 09:00,1.0,,,,460,581,1041,,,,,,,
100024661,2020-07-13 10:00,1.0,,,,275,289,564,,,,,,,
100024661,2020-07-13 11:00,1.0,,,,225,244,469,,,,,,,
100024661,2020-07-13 12:00,1.0,,,,267,262,529,,,,,,,
100024661,2020-07-13 13:00,1.0,,,,300,346,646,,,,,,,
100024661,2020-07-13 14:00,1.0,,,,342,332,674,,,,,,,
100024661,2020-07-13 15:00,1.0,,,,388,331,719,,,,,,,
100024661,2020-07-13 16:00,1.0,,,,528,417,945,,,,,,,
100024661,2020-07-13 17:00,1.0,,,,633,605,1238,,,,,,,
100024661,2020-07-13 18:00,1.0,,,,728,679,1407,,,,,,,
100024661,2020-07-13 19:00,1.0,,,,452,565,1017,,,,,,,
100024661,2020-07-13 20:00,1.0,,,,342,366,708,,,,,,,
100024661,2020-07-13 21:00,1.0,,,,240,252,492,,,,,,,
100024661,2020-07-13 22:00,1.0,,,,197,171,368,,,,,,,
100024661,2020-07-13 23:00,1.0,,,,144,138,282,,,,,,,
100024661,2020-07-14 00:00,1.0,,,,78,96,174,,,,,,,
100024661,2020-07-14 01:00,1.0,,,,47,25,72,,,,,,,
100024661,2020-07-14 02:00,1.0,,,,12,4,16,,,,,,,
100024661,2020-07-14 03:00,1.0,,,,7,7,14,,,,,,,
100024661,2020-07-14 04:00,1.0,,,,6,11,17,,,,,,,
100024661,2020-07-14 05:00,1.0,,,,25,49,74,,,,,,,
100024661,2020-07-14 06:00,1.0,,,,69,150,219,,,,,,,
100024661,2020-07-14 07:00,1.0,,,,154,330,484,,,,,,,
100024661,2020-07-14 08:00,1.0,,,,492,821,1313,,,,,,,
100024661,2020-07-14 09:00,1.0,,,,541,692,1233,,,,,,,
100024661,2020-07-14 10:00,1.0,,,,313,333,646,,,,,,,
100024661,2020-07-14 11:00,1.0,,,,260,319,579,,,,,,,
100024661,2020-07-14 12:00,1.0,,,,315,345,660,,,,,,,
100024661,2020-07-14 13:00,1.0,,,,349,366,715,,,,,,,
100024661,2020-07-14 14:00,1.0,,,,401,392,793,,,,,,,
100024661,2020-07-14 15:00,1.0,,,,468,432,900,,,,,,,
100024661,2020-07-14 16:00,1.0,,,,532,490,1022,,,,,,,
100024661,2020-07-14 17:00,1.0,,,,719,671,1390,,,,,,,
100024661,2020-07-14 18:00,1.0,,,,809,821,1630,,,,,,,
100024661,2020-07-14 19:00,1.0,,,,571,628,1199,,,,,,,
100024661,2020-07-14 20:00,1.0,,,,351,411,762,,,,,,,
100024661,2020-07-14 21:00,1.0,,,,288,266,554,,,,,,,
100024661,2020-07-14 22:00,1.0,,,,253,243,496,,,,,,,
100024661,2020-07-14 23:00,1.0,,,,216,179,395,,,,,,,
100024661,2020-07-15 00:00,1.0,,,,106,104,210,,,,,,,
100024661,2020-07-15 01:00,1.0,,,,44,37,81,,,,,,,
100024661,2020-07-15 02:00,1.0,,,,16,21,37,,,,,,,
100024661,2020-07-15 03:00,1.0,,,,12,9,21,,,,,,,
100024661,2020-07-15 04:00,1.0,,,,1,14,15,,,,,,,
100024661,2020-07-15 05:00,1.0,,,,11,45,56,,,,,,,
100024661,2020-07-15 06:00,1.0,,,,62,119,181,,,,,,,
100024661,2020-07-15 07:00,1.0,,,,156,241,397,,,,,,,
100024661,2020-07-15 08:00,1.0,,,,411,625,1036,,,,,,,
100024661,2020-07-15 09:00,1.0,,,,388,494,882,,,,,,,
100024661,2020-07-15 10:00,1.0,,,,210,227,437,,,,,,,
100024661,2020-07-15 11:00,1.0,,,,174,171,345,,,,,,,
100024661,2020-07-15 12:00,1.0,,,,139,138,277,,,,,,,
100024661,2020-07-15 13:00,1.0,,,,148,164,312,,,,,,,
100024661,2020-07-15 14:00,1.0,,,,196,150,346,,,,,,,
100024661,2020-07-15 15:00,1.0,,,,222,184,406,,,,,,,
100024661,2020-07-15 16:00,1.0,,,,234,177,411,,,,,,,
100024661,2020-07-15 17:00,1.0,,,,350,312,662,,,,,,,
100024661,2020-07-15 18:00,1.0,,,,534,448,982,,,,,,,
100024661,2020-07-15 19:00,1.0,,,,354,393,747,,,,,,,
100024661,2020-07-15 20:00,1.0,,,,223,239,462,,,,,,,
100024661,2020-07-15 21:00,1.0,,,,126,137,263,,,,,,,
100024661,2020-07-15 22:00,1.0,,,,102,113,215,,,,,,,
100024661,2020-07-15 23:00,1.0,,,,92,90,182,,,,,,,
100024661,2020-07-16 00:00,1.0,,,,52,52,104,,,,,,,
100024661,2020-07-16 01:00,1.0,,,,19,23,42,,,,,,,
100024661,2020-07-16 02:00,1.0,,,,12,6,18,,,,,,,
100024661,2020-07-16 03:00,1.0,,,,4,6,10,,,,,,,
100024661,2020-07-16 04:00,1.0,,,,6,6,12,,,,,,,
100024661,2020-07-16 05:00,1.0,,,,22,45,67,,,,,,,
100024661,2020-07-16 06:00,1.0,,,,49,114,163,,,,,,,
100024661,2020-07-16 07:00,1.0,,,,136,240,376,,,,,,,
100024661,2020-07-16 08:00,1.0,,,,382,656,1038,,,,,,,
100024661,2020-07-16 09:00,1.0,,,,441,541,982,,,,,,,
100024661,2020-07-16 10:00,1.0,,,,281,297,578,,,,,,,
100024661,2020-07-16 11:00,1.0,,,,248,217,465,,,,,,,
100024661,2020-07-16 12:00,1.0,,,,262,274,536,,,,,,,
100024661,2020-07-16 13:00,1.0,,,,255,300,555,,,,,,,
100024661,2020-07-16 14:00,1.0,,,,306,313,619,,,,,,,
100024661,2020-07-16 15:00,1.0,,,,355,321,676,,,,,,,
100024661,2020-07-16 16:00,1.0,,,,431,431,862,,,,,,,
100024661,2020-07-16 17:00,1.0,,,,583,544,1127,,,,,,,
100024661,2020-07-16 18:00,1.0,,,,746,694,1440,,,,,,,
100024661,2020-07-16 19:00,1.0,,,,432,520,952,,,,,,,
100024661,2020-07-16 20:00,1.0,,,,319,341,660,,,,,,,
100024661,2020-07-16 21:00,1.0,,,,203,210,413,,,,,,,
100024661,2020-07-16 22:00,1.0,,,,192,203,395,,,,,,,
100024661,2020-07-16 23:00,1.0,,,,136,152,288,,,,,,,
100024661,2020-07-17 00:00,1.0,,,,95,100,195,,,,,,,
100024661,2020-07-17 01:00,1.0,,,,45,46,91,,,,,,,
100024661,2020-07-17 02:00,1.0,,,,24,19,43,,,,,,,
100024661,2020-07-17 03:00,1.0,,,,10,12,22,,,,,,,
100024661,2020-07-17 04:00,1.0,,,,8,13,21,,,,,,,
100024661,2020-07-17 05:00,1.0,,,,18,42,60,,,,,,,
100024661,2020-07-17 06:00,1.0,,,,46,117,163,,,,,,,
100024661,2020-07-17 07:00,1.0,,,,134,218,352,,,,,,,
100024661,2020-07-17 08:00,1.0,,,,327,522,849,,,,,,,
100024661,2020-07-17 09:00,1.0,,,,373,462,835,,,,,,,
100024661,2020-07-17 10:00,1.0,,,,279,298,577,,,,,,,
100024661,2020-07-17 11:00,1.0,,,,213,230,443,,,,,,,
100024661,2020-07-17 12:00,1.0,,,,282,279,561,,,,,,,
100024661,2020-07-17 13:00,1.0,,,,283,307,590,,,,,,,
100024661,2020-07-17 14:00,1.0,,,,379,323,702,,,,,,,
100024661,2020-07-17 15:00,1.0,,,,387,342,729,,,,,,,
100024661,2020-07-17 16:00,1.0,,,,301,259,560,,,,,,,
100024661,2020-07-17 17:00,1.0,,,,425,433,858,,,,,,,
100024661,2020-07-17 18:00,1.0,,,,442,489,931,,,,,,,
100024661,2020-07-17 19:00,1.0,,,,346,476,822,,,,,,,
100024661,2020-07-17 20:00,1.0,,,,239,340,579,,,,,,,
100024661,2020-07-17 21:00,1.0,,,,135,191,326,,,,,,,
100024661,2020-07-17 22:00,1.0,,,,173,150,323,,,,,,,
100024661,2020-07-17 23:00,1.0,,,,160,142,302,,,,,,,
100024661,2020-07-18 00:00,1.0,,,,114,133,247,,,,,,,
100024661,2020-07-18 01:00,1.0,,,,89,88,177,,,,,,,
100024661,2020-07-18 02:00,1.0,,,,68,43,111,,,,,,,
100024661,2020-07-18 03:00,1.0,,,,34,34,68,,,,,,,
100024661,2020-07-18 04:00,1.0,,,,17,17,34,,,,,,,
100024661,2020-07-18 05:00,1.0,,,,18,13,31,,,,,,,
100024661,2020-07-18 06:00,1.0,,,,18,18,36,,,,,,,
100024661,2020-07-18 07:00,1.0,,,,34,25,59,,,,,,,
100024661,2020-07-18 08:00,1.0,,,,64,56,120,,,,,,,
100024661,2020-07-18 09:00,1.0,,,,150,120,270,,,,,,,
100024661,2020-07-18 10:00,1.0,,,,239,243,482,,,,,,,
100024661,2020-07-18 11:00,1.0,,,,220,266,486,,,,,,,
100024661,2020-07-18 12:00,1.0,,,,282,274,556,,,,,,,
100024661,2020-07-18 13:00,1.0,,,,310,347,657,,,,,,,
100024661,2020-07-18 14:00,1.0,,,,334,341,675,,,,,,,
100024661,2020-07-18 15:00,1.0,,,,348,463,811,,,,,,,
100024661,2020-07-18 16:00,1.0,,,,370,427,797,,,,,,,
100024661,2020-07-18 17:00,1.0,,,,280,490,770,,,,,,,
100024661,2020-07-18 18:00,1.0,,,,318,467,785,,,,,,,
100024661,2020-07-18 19:00,1.0,,,,271,439,710,,,,,,,
100024661,2020-07-18 20:00,1.0,,,,228,337,565,,,,,,,
100024661,2020-07-18 21:00,1.0,,,,211,242,453,,,,,,,
100024661,2020-07-18 22:00,1.0,,,,201,183,384,,,,,,,
100024661,2020-07-18 23:00,1.0,,,,195,196,391,,,,,,,
100024661,2020-07-19 00:00,1.0,,,,146,155,301,,,,,,,
100024661,2020-07-19 01:00,1.0,,,,148,94,242,,,,,,,
100024661,2020-07-19 02:00,1.0,,,,100,56,156,,,,,,,
100024661,2020-07-19 03:00,1.0,,,,45,34,79,,,,,,,
100024661,2020-07-19 04:00,1.0,,,,39,29,68,,,,,,,
100024661,2020-07-19 05:00,1.0,,,,22,22,44,,,,,,,
100024661,2020-07-19 06:00,1.0,,,,20,11,31,,,,,,,
100024661,2020-07-19 07:00,1.0,,,,31,26,57,,,,,,,
100024661,2020-07-19 08:00,1.0,,,,56,31,87,,,,,,,
100024661,2020-07-19 09:00,1.0,,,,80,90,170,,,,,,,
100024661,2020-07-19 10:00,1.0,,,,124,150,274,,,,,,,
100024661,2020-07-19 11:00,1.0,,,,135,201,336,,,,,,,
100024661,2020-07-19 12:00,1.0,,,,192,278,470,,,,,,,
100024661,2020-07-19 13:00,1.0,,,,210,270,480,,,,,,,